Regional Weather Roundup
Issued by NWS

Home | Current Version | Previous Version | Graphics & Text | Print | Product List | Glossary On
Versions: 1 2 3 4 5 6 7 8 9 10 11 12 13 14 15 16 17 18 19 20 21 22 23 24 25 26 27 28 29 30 31 32 33 34 35 36 37 38 39 40 41 42 43 44 45 46 47 48 49 50
000
ASUS45 KTFX 291210
RWRMT
MONTANA REGIONAL WEATHER ROUNDUP
NATIONAL WEATHER SERVICE GREAT FALLS MT
600 AM MDT WED JUL 29 2015

NOTE: "FAIR" INDICATES FEW OR NO CLOUDS BELOW 12000 FEET WITH NO
SIGNIFICANT WEATHER AND/OR OBSTRUCTIONS TO VISIBILITY.

MTZ001>007-043-291300-
WEST OF THE DIVIDE

CITY           SKY/WX    TMP DP  RH WIND       PRES   REMARKS
KALISPELL      SUNNY     40  38  93 CALM      30.24R
MISSOULA       CLEAR     49  41  74 E5        30.31R
BUTTE          CLEAR     37  34  89 SE5       30.37R
MULLAN PASS    CLEAR     51  32  48 NW3       30.34S
DEER LODGE       N/A     39  36  87 CALM      30.37R
EUREKA           N/A     45  39  81 CALM      30.24R
HAMILTON         N/A     48  39  71 S7        30.30R
LIBBY            N/A     43  39  87 CALM      30.25S
PLAINS           N/A     44  37  76 CALM      30.25R
RONAN            N/A     47  43  86 CALM      30.27R
$$

MTZ008-052>055-291300-
SOUTHWEST MONTANA

CITY           SKY/WX    TMP DP  RH WIND       PRES   REMARKS
BOZEMAN        CLEAR     42  38  85 SE6       30.33R
DILLON         CLEAR     43  37  79 S9        30.34R
W YELLOWSTONE  CLEAR     28  28 100 CALM      30.43R
TWIN BRIDGES     N/A     41  34  76 S1        30.29R
$$

MTZ009-010-012-014-046-048-049-054-291300-
EAST SLOPES AND CENTRAL MONTANA

CITY           SKY/WX    TMP DP  RH WIND       PRES   REMARKS
CUT BANK       CLEAR     47  40  76 W6        30.19R
GREAT FALLS    CLEAR     51  40  65 SW12      30.21R
MALMSTROM AFB  CLEAR     50  41  72 SW12      30.22R
HELENA         CLEAR     50  41  71 CALM      30.27R
CONRAD           N/A     49  46  89 SW6       30.19R
$$

MTZ011-013-016-021-045-047-050-051-291300-
NORTH CENTRAL MONTANA

CITY           SKY/WX    TMP DP  RH WIND       PRES   REMARKS
HAVRE          CLOUDY    56  45  66 SW10      30.13R
LEWISTOWN      CLEAR     44  38  79 SE6       30.25R
CHINOOK          N/A     52  48  87 CALM      30.13R
FORT BENTON      N/A     54  43  66 SW3       30.19S
$$

MTZ017>020-022>027-061-062-291300-
NORTHEAST MONTANA

CITY           SKY/WX    TMP DP  RH WIND       PRES   REMARKS
GLASGOW        PTCLDY    53  46  77 CALM      30.08R
JORDAN           N/A     49  44  83 NW7       30.13R
SIDNEY         MOCLDY    61  46  59 W15G21    30.03R
WOLF POINT     MOCLDY    54  49  83 W9        30.06R
MALTA            N/A     49  44  83 CALM      30.06R
PLENTYWOOD       N/A     55  48  76 W9        29.99R
POPLAR           N/A     54  50  87 SW9       30.05R
SCOBEY           N/A     52  45  77 W2        30.01R
$$

MTZ028>42-056>058-291300-
SOUTHCENTRAL AND SOUTHEAST MONTANA

CITY           SKY/WX    TMP DP  RH WIND       PRES   REMARKS
BAKER          PTCLDY    51  39  63 W8        30.15R
BILLINGS       PTCLDY    55  36  48 SW17      30.25R
LIVINGSTON     CLEAR     47  37  68 NW13      30.30R
MILES CITY     CLEAR     51  43  74 W8        30.15R
EKALAKA          N/A     55  36  49 SW9       30.15R
FORSYTH          N/A     55  43  62 SW7       30.17R
LAUREL           N/A     47  35  63 W5        30.22R
ROUNDUP          N/A     49  38  65 S7        30.12R
$$

REGIONAL REPORTS...DAKOTAS

CITY           SKY/WX    TMP DP  RH WIND       PRES   REMARKS
WILLISTON      MOCLDY    59  48  67 W18       29.98R
MINOT          CLOUDY    61  51  70 W17       29.85R
DICKINSON      PTCLDY    56  43  61 W14       30.05R
BEACH          PTSUNNY   55  43  62 W14       30.11R
CROSBY         FAIR      55  54  94 W14G20    29.93R
BISMARCK       CLEAR     61  47  59 W21G29    29.97R
GRAND FORKS    CLOUDY    65  55  70 W22G37    29.65R
FARGO          CLOUDY    65  51  60 W23G29    29.77R
BUFFALO SD       N/A     51  39  63 W12       30.09R
RAPID CITY     CLEAR     52  41  66 W5        30.24R
$$

REGIONAL REPORTS...WYOMING/IDAHO/WASHINGTON

CITY           SKY/WX    TMP DP  RH WIND       PRES   REMARKS
GILLETTE       CLEAR     53  36  52 SW12      30.29R
SHERIDAN       CLEAR     51  34  52 SE6       30.27R
BUFFALO WY     CLEAR     55  31  39 SW9       30.33R
CODY           CLEAR     54  32  43 SW13      30.33R
YELLOWSTONE LA   N/A     28  26  92 CALM      30.48S
IDAHO FALLS    CLEAR     39  36  89 N6        30.34R
SALMON         CLEAR     43  39  87 CALM      30.35R
BOISE          CLEAR     58  36  43 SE12      30.22R
SPOKANE        PTCLDY    58  38  47 S8        30.20S
$$

REGIONAL REPORTS...ALBERTA

CITY           SKY/WX    TMP DP  RH WIND       PRES   REMARKS
EDMONTON       CLEAR     52  45  76 SW7       30.02S
CALGARY        PTCLDY    52  39  62 NE9       30.14R
LETHBRIDGE     PTCLDY    50  43  76 SW9       30.14R
MEDICINE HAT   CLEAR     50  46  87 S8        30.09R
WATERTON GATE    N/A     54  39  58 SW12G18     N/A
CARDSTON         N/A     52  39  62 SW8         N/A
MILK RIVER       N/A     46  41  81 NW12        N/A
ONEFOUR          N/A     52  43  71 NW16        N/A
$$

REGIONAL REPORTS...SASKATCHEWAN

CITY           SKY/WX    TMP DP  RH WIND       PRES   REMARKS
SWIFT CURRENT  CLEAR     52  48  87 W13       30.02R
REGINA         MOCLDY    55  52  88 W8        29.90R
SASKATOON      PTCLDY    54  52  94 NW10      29.89R
CYPRESS HILLS    N/A     52  41  66 NW6         N/A
VAL MARIE        N/A     50  46  87 NW7         N/A
ROCKGLEN         N/A     54  46  76 W9          N/A
ASSINIBOIA       N/A     52  46  82 W8          N/A
$$



USA.gov is the U.S. government's official web portal to all federal, state and local government web resources and services.